This demonstration page uses our WeatherBlox Daily Observations layout. Learn more.

Left ArrowRight Arrow

39.08367, -84.50855

Hourly Observations for October 8, 2015

Temp ( °F °C ) Dew Point ( °F °C ) Humidity (%) Winds ( mph kmh ) Pressure ( in mb ) Visibility ( mi km ) Precip ( " mm )
12:15 am 00:15 Clear with Mist and Fog 58 14.4 58 14.4 100 100 Calm 30.12 1020 1 1 0.00 0.00
12:53 am 00:53 Clear with Mist and Fog 58 14.4 58 14.4 100 100 Calm 30.11 1020 1 2 0.00 0.00
12:57 am 00:57 Mostly Cloudy with Fog 57 13.9 57 13.9 100 100 Calm 30.12 1020 1 1 0.00 0.00
1:17 am 01:17 Mostly Clear with Mist and Fog 57 13.9 57 13.9 100 100 Calm 30.12 1020 1 2 0.00 0.00
1:37 am 01:37 Mostly Cloudy with Fog 56 13.3 56 13.3 100 100 Calm 30.12 1020 0 0 0.00 0.00
1:50 am 01:50 Mostly Cloudy with Mist and Fog 55 13 55 13 100 100 Calm 30.12 1020 1 2 0.00 0.00
1:53 am 01:53 Mostly Clear with Mist and Fog 56 13.3 56 13.3 100 100 Calm 30.11 1020 2 3 0.00 0.00
1:58 am 01:58 Mostly Cloudy with Mist and Fog 55 13 55 13 100 100 Calm 30.12 1020 1 1 0.00 0.00
2:09 am 02:09 Clear with Fog 56 13.3 56 13.3 100 100 Calm 30.12 1020 0 0 0.00 0.00
2:15 am 02:15 Mostly Cloudy with Fog 56 13.3 56 13.3 100 100 Calm 30.12 1020 1 1 0.00 0.00
2:53 am 02:53 Mostly Cloudy with Mist and Fog 56 13.3 56 13.3 100 100 NE 3 6 30.10 1019 1 1 0.00 0.00
2:56 am 02:56 Partly Cloudy with Mist and Fog 55 13 55 13 100 100 NE 3 6 30.12 1020 1 2 0.00 0.00
3:03 am 03:03 Mostly Cloudy with Mist and Fog 55 13 55 13 100 100 NE 3 6 30.12 1020 1 1 0.00 0.00
3:12 am 03:12 Mostly Clear with Mist and Fog 55 13 55 13 100 100 NE 3 6 30.12 1020 1 2 0.00 0.00
3:24 am 03:24 Mostly Cloudy with Mist and Fog 55 13 55 13 100 100 NE 3 6 30.12 1020 1 1 0.00 0.00
3:53 am 03:53 Mostly Cloudy with Fog 55 12.8 55 12.8 100 100 Calm 30.10 1019 1 1 0.00 0.00
4:15 am 04:15 Mostly Cloudy with Fog 53 11.7 53 11.7 100 100 ENE 3 6 30.12 1020 1 1 0.00 0.00
4:35 am 04:35 Mostly Clear with Mist and Fog 54 12.2 54 12.2 100 100 ENE 3 6 30.12 1020 1 2 0.00 0.00
4:45 am 04:45 Clear with Mist and Fog 54 12.2 54 12.2 100 100 NE 5 7 30.12 1020 3 5 0.00 0.00
4:53 am 04:53 Clear with Mist and Fog 55 12.8 55 12.8 100 100 NNE 3 6 30.10 1019 3 5 0.00 0.00
5:53 am 05:53 Clear with Mist and Fog 54 12.2 54 12.2 100 100 Calm 30.09 1019 3 5 0.00 0.00
6:15 am 06:15 Clear with Mist and Fog 54 12.2 54 12.2 100 100 Calm 30.12 1020 3 5 0.00 0.00
6:49 am 06:49 Partly Cloudy with Patchy Fog 54 12 54 12 100 100 Calm 30.12 1020 6 10 0.00 0.00
6:53 am 06:53 Partly Cloudy with Patchy Fog 53 11.7 53 11.7 100 100 Calm 30.11 1020 6 10 0.00 0.00
7:53 am 07:53 Partly Cloudy with Patchy Fog 53 11.7 53 11.7 100 100 Calm 30.11 1020 6 10 0.00 0.00
8:03 am 08:03 Mostly Cloudy with Patchy Fog 54 12 54 12 100 100 Calm 30.12 1020 6 10 0.00 0.00
8:10 am 08:10 Partly Cloudy with Patchy Fog 54 12.2 54 12.2 100 100 Calm 30.12 1020 6 10 0.00 0.00
8:53 am 08:53 Cloudy with Patchy Fog 56 13.3 56 13.3 100 100 Calm 30.12 1020 4 6 0.00 0.00
9:49 am 09:49 Partly Cloudy with Patchy Fog 59 15 59 15 100 100 Calm 30.12 1020 4 6 0.00 0.00
9:53 am 09:53 Partly Cloudy with Mist and Fog 59 15 59 15 100 100 Calm 30.12 1020 5 8 0.00 0.00
10:53 am 10:53 Sunny 67 19.4 63 17.2 87 87 S 3 6 30.11 1020 9 14 0.00 0.00
11:53 am 11:53 Sunny 73 22.8 63 17.2 71 71 SSW 7 11 30.09 1019 10 16 0.00 0.00
12:53 pm 12:53 Sunny 76 24.4 63 17.2 64 64 S 8 13 30.08 1019 10 16 0.00 0.00
1:53 pm 13:53 Mostly Cloudy 78 25.6 62 16.7 58 58 S 12 19 30.06 1018 10 16 0.00 0.00
2:53 pm 14:53 Mostly Cloudy 79 26.1 62 16.7 56 56 S 12 19 30.03 1017 10 16 0.00 0.00
3:53 pm 15:53 Mostly Cloudy 78 25.6 60 15.6 54 54 SSW 12 19 30.01 1016 10 16 0.00 0.00
4:53 pm 16:53 Cloudy 76 24.4 62 16.7 62 62 SSW 6 9 30.00 1016 10 16 0.00 0.00
5:53 pm 17:53 Mostly Sunny 77 25 63 17.2 62 62 S 3 6 29.99 1016 10 16 0.00 0.00
6:53 pm 18:53 Mostly Cloudy 72 22.2 65 18.3 79 79 S 3 6 29.98 1015 10 16 0.00 0.00
7:53 pm 19:53 Clear 68 20 65 18.3 90 90 Calm 29.99 1016 10 16 0.00 0.00
8:53 pm 20:53 Clear 64 17.8 63 17.2 96 96 Calm 29.99 1016 10 16 0.00 0.00
9:53 pm 21:53 Clear 62 16.7 62 16.7 100 100 Calm 29.98 1015 10 16 0.00 0.00
10:53 pm 22:53 Partly Cloudy 61 16.1 61 16.1 100 100 Calm 29.99 1016 7 11 0.00 0.00
11:53 pm 23:53 Mostly Cloudy 62 16.7 62 16.7 100 100 Calm 29.98 1015 8 13 0.00 0.00

Powered by AerisWeather